| time (UTC) | temp F | wind direction | speed knots | gust knots | rain 1hr in | rain 24hr in | rain mn in | humidity % | barometer mb |
| 20260902231559 | 91 | 229 | 1.7 | 7.0 | 0.00 | 0.00 | 0.00 | 67 | 1013.6 |
| 20260902230054 | 92 | 214 | 0.9 | 6.1 | 0.00 | 0.00 | 0.00 | 67 | 1013.5 |
| 20260902224549 | 92 | 230 | 4.3 | 9.6 | 0.00 | 0.00 | 0.00 | 65 | 1013.5 |
| 20260902223046 | 93 | 256 | 1.7 | 9.6 | 0.00 | 0.00 | 0.00 | 64 | 1013.6 |
| 20260902221553 | 93 | 204 | 4.3 | 10.4 | 0.00 | 0.00 | 0.00 | 63 | 1013.7 |
| 20260902220043 | 94 | 210 | 3.5 | 8.7 | 0.00 | 0.00 | 0.00 | 62 | 1013.6 |
| 20260902214543 | 94 | 243 | 3.5 | 9.6 | 0.00 | 0.00 | 0.00 | 63 | 1013.5 |
| 20260902213043 | 94 | 252 | 6.1 | 9.6 | 0.00 | 0.00 | 0.00 | 60 | 1013.5 |
| 20260902211536 | 94 | 186 | 4.3 | 11.3 | 0.00 | 0.00 | 0.00 | 60 | 1013.6 |
| 20260902210037 | 94 | 214 | 7.0 | 11.3 | 0.00 | 0.00 | 0.00 | 58 | 1013.6 |
| 20260902204529 | 95 | 240 | 1.7 | 9.6 | 0.00 | 0.00 | 0.00 | 61 | 1013.6 |
| 20260902203025 | 94 | 196 | 4.3 | 13.0 | 0.00 | 0.00 | 0.00 | 60 | 1013.9 |
| 20260902201522 | 94 | 205 | 1.7 | 12.2 | 0.00 | 0.00 | 0.00 | 61 | 1013.9 |
| 20260902200021 | 94 | 207 | 5.2 | 11.3 | 0.00 | 0.00 | 0.00 | 61 | 1014.1 |
| 20260902194518 | 94 | 238 | 5.2 | 13.0 | 0.00 | 0.00 | 0.00 | 60 | 1014.1 |
| 20260902193011 | 94 | 151 | 2.6 | 10.4 | 0.00 | 0.00 | 0.00 | 62 | 1014.4 |
| 20260902191513 | 94 | 237 | 4.3 | 11.3 | 0.00 | 0.00 | 0.00 | 61 | 1014.5 |
| 20260902190009 | 93 | 212 | 5.2 | 10.4 | 0.00 | 0.00 | 0.00 | 62 | 1014.8 |
| 20260902184502 | 93 | 240 | 7.0 | 12.2 | 0.00 | 0.00 | 0.00 | 61 | 1014.8 |
| 20260902183113 | 93 | 211 | 7.0 | 13.0 | 0.00 | 0.00 | 0.00 | 62 | 1014.9 |
| 20260902181555 | 92 | 207 | 6.1 | 12.2 | 0.00 | 0.00 | 0.00 | 62 | 1015.1 |
| 20260902180051 | 92 | 217 | 5.2 | 9.6 | 0.00 | 0.00 | 0.00 | 64 | 1015.1 |
| 20260902174556 | 92 | 211 | 7.0 | 13.0 | 0.00 | 0.00 | 0.00 | 64 | 1015.4 |
| 20260902173044 | 91 | 211 | 2.6 | 9.6 | 0.00 | 0.00 | 0.00 | 66 | 1015.4 |
| 20260902171541 | 91 | 260 | 3.5 | 9.6 | 0.00 | 0.00 | 0.00 | 65 | 1015.6 |
| 20260902170037 | 91 | 184 | 5.2 | 12.2 | 0.00 | 0.00 | 0.00 | 65 | 1015.7 |
| 20260902164535 | 90 | 226 | 3.5 | 9.6 | 0.00 | 0.00 | 0.00 | 66 | 1016.0 |
| 20260902163028 | 90 | 233 | 2.6 | 13.0 | 0.00 | 0.00 | 0.00 | 68 | 1015.8 |
| 20260902161523 | 89 | 261 | 5.2 | 9.6 | 0.00 | 0.00 | 0.00 | 68 | 1016.0 |
| 20260902160028 | 88 | 207 | 4.3 | 9.6 | 0.00 | 0.00 | 0.00 | 70 | 1016.0 |
| 20260902154521 | 88 | 278 | 3.5 | 8.7 | 0.00 | 0.00 | 0.00 | 71 | 1016.1 |
| 20260902153014 | 87 | 205 | 1.7 | 9.6 | 0.00 | 0.00 | 0.00 | 72 | 1016.0 |
| 20260902151510 | 86 | 243 | 3.5 | 9.6 | 0.00 | 0.00 | 0.00 | 73 | 1016.1 |
| 20260902150008 | 85 | 225 | 5.2 | 10.4 | 0.00 | 0.00 | 0.00 | 74 | 1016.1 |
| 20260902144501 | 85 | 243 | 2.6 | 8.7 | 0.00 | 0.00 | 0.00 | 75 | 1016.0 |
| 20260902143101 | 84 | 231 | 2.6 | 11.3 | 0.00 | 0.00 | 0.00 | 76 | 1016.1 |
| 20260902141555 | 84 | 210 | 3.5 | 8.7 | 0.00 | 0.00 | 0.00 | 75 | 1015.9 |
| 20260902140053 | 83 | 252 | 3.5 | 7.8 | 0.00 | 0.00 | 0.00 | 76 | 1015.9 |
| 20260902134550 | 82 | 242 | 2.6 | 7.0 | 0.00 | 0.00 | 0.00 | 77 | 1016.3 |
| 20260902133043 | 81 | 237 | 2.6 | 7.8 | 0.00 | 0.00 | 0.00 | 78 | 1016.4 |
| 20260902131540 | 80 | 249 | 1.7 | 7.8 | 0.00 | 0.00 | 0.00 | 79 | 1016.3 |
| 20260902130039 | 79 | 232 | 3.5 | 8.7 | 0.00 | 0.00 | 0.00 | 80 | 1016.5 |
| 20260902124537 | 78 | 236 | 3.5 | 7.8 | 0.00 | 0.00 | 0.00 | 81 | 1016.3 |
| 20260902123033 | 78 | 208 | 2.6 | 7.0 | 0.00 | 0.00 | 0.00 | 82 | 1016.3 |
| 20260902121529 | 77 | 266 | 1.7 | 5.2 | 0.00 | 0.00 | 0.00 | 83 | 1016.3 |
| 20260902120027 | 76 | 197 | 1.7 | 7.8 | 0.00 | 0.00 | 0.00 | 84 | 1016.4 |
| 20260902114542 | 76 | 229 | 0.9 | 5.2 | 0.00 | 0.00 | 0.00 | 86 | 1016.3 |
| 20260902113019 | 75 | 238 | 0.9 | 4.3 | 0.00 | 0.00 | 0.00 | 87 | 1016.2 |
| 20260902111518 | 74 | 231 | 0.9 | 3.5 | 0.00 | 0.00 | 0.00 | 88 | 1016.1 |
| 20260902110013 | 74 | 160 | 0.0 | 1.7 | 0.00 | 0.00 | 0.00 | 88 | 1016.0 |
| 20260902104512 | 75 | 216 | 0.0 | 0.9 | 0.00 | 0.00 | 0.00 | 88 | 1015.8 |
| 20260902103010 | 75 | 214 | 0.0 | 1.7 | 0.00 | 0.00 | 0.00 | 88 | 1015.6 |
| 20260902101506 | 75 | 214 | 0.9 | 5.2 | 0.00 | 0.00 | 0.00 | 87 | 1015.5 |
| 20260902100003 | 75 | 188 | 1.7 | 4.3 | 0.00 | 0.00 | 0.00 | 87 | 1015.4 |
| 20260902094501 | 75 | 216 | 0.0 | 2.6 | 0.00 | 0.00 | 0.00 | 87 | 1015.3 |
| 20260902093113 | 75 | 221 | 0.9 | 4.3 | 0.00 | 0.00 | 0.00 | 87 | 1015.2 |
| 20260902091557 | 76 | 210 | 0.0 | 2.6 | 0.00 | 0.00 | 0.00 | 87 | 1015.2 |
| 20260902090055 | 76 | 189 | 0.0 | 0.9 | 0.00 | 0.00 | 0.00 | 87 | 1015.3 |
| 20260902084555 | 76 | 214 | 0.0 | 1.7 | 0.00 | 0.00 | 0.00 | 87 | 1015.4 |
| 20260902083050 | 76 | 172 | 0.9 | 3.5 | 0.00 | 0.00 | 0.00 | 87 | 1015.2 |
| 20260902081549 | 76 | 219 | 0.0 | 1.7 | 0.00 | 0.00 | 0.00 | 87 | 1015.2 |
| 20260902080048 | 77 | 175 | 0.9 | 3.5 | 0.00 | 0.00 | 0.00 | 86 | 1015.1 |
| 20260902074544 | 77 | 226 | 0.9 | 4.3 | 0.00 | 0.00 | 0.00 | 86 | 1015.2 |
| 20260902073045 | 77 | 182 | 0.9 | 5.2 | 0.00 | 0.00 | 0.00 | 86 | 1015.2 |
| 20260902071545 | 77 | 235 | 2.6 | 6.1 | 0.00 | 0.00 | 0.00 | 86 | 1015.1 |
| 20260902070035 | 77 | 183 | 1.7 | 5.2 | 0.00 | 0.00 | 0.00 | 86 | 1015.2 |
| 20260902064539 | 78 | 217 | 1.7 | 5.2 | 0.00 | 0.00 | 0.00 | 87 | 1015.1 |
| 20260902063030 | 78 | 198 | 1.7 | 5.2 | 0.00 | 0.00 | 0.00 | 86 | 1015.1 |
| 20260902061527 | 79 | 227 | 1.7 | 5.2 | 0.00 | 0.00 | 0.00 | 86 | 1015.3 |
| 20260902060023 | 79 | 221 | 0.9 | 4.3 | 0.00 | 0.00 | 0.00 | 85 | 1015.3 |
| 20260902054533 | 79 | 202 | 0.9 | 5.2 | 0.00 | 0.00 | 0.00 | 85 | 1015.3 |
| 20260902053021 | 79 | 187 | 1.7 | 6.1 | 0.00 | 0.00 | 0.00 | 86 | 1015.3 |
| 20260902051516 | 79 | 233 | 1.7 | 5.2 | 0.00 | 0.00 | 0.00 | 86 | 1015.2 |
| 20260902050025 | 79 | 230 | 0.9 | 6.1 | 0.00 | 0.00 | 0.00 | 86 | 1015.1 |
| 20260902044509 | 80 | 193 | 0.9 | 4.3 | 0.00 | 0.00 | 0.00 | 86 | 1015.2 |
| 20260902043011 | 80 | 170 | 1.7 | 4.3 | 0.00 | 0.00 | 0.00 | 85 | 1015.2 |
| 20260902041502 | 80 | 192 | 0.9 | 4.3 | 0.00 | 0.00 | 0.00 | 85 | 1015.2 |
| 20260902040058 | 80 | 199 | 0.0 | 4.3 | 0.00 | 0.00 | 0.00 | 84 | 1015.2 |
| 20260902034557 | 81 | 201 | 0.9 | 4.3 | 0.00 | 0.00 | 0.00 | 84 | 1015.1 |
| 20260902033054 | 81 | 227 | 0.0 | 2.6 | 0.00 | 0.00 | 0.00 | 84 | 1015.1 |
| 20260902031604 | 82 | 167 | 0.9 | 3.5 | 0.00 | 0.00 | 0.00 | 83 | 1015.2 |
| 20260902030053 | 82 | 193 | 0.0 | 3.5 | 0.00 | 0.00 | 0.00 | 83 | 1015.2 |
| 20260902024556 | 82 | 224 | 0.9 | 3.5 | 0.00 | 0.13 | 0.00 | 82 | 1015.2 |
| 20260902023059 | 83 | 224 | 0.0 | 3.5 | 0.00 | 0.13 | 0.00 | 82 | 1015.1 |
| 20260902021550 | 83 | 216 | 0.0 | 0.9 | 0.00 | 0.13 | 0.00 | 82 | 1015.1 |
| 20260902020042 | 83 | 162 | 0.0 | 1.7 | 0.00 | 0.13 | 0.00 | 82 | 1015.0 |
| 20260902014542 | 84 | 226 | 0.9 | 2.6 | 0.00 | 0.13 | 0.00 | 82 | 1015.0 |
| 20260902013038 | 84 | 221 | 0.0 | 0.9 | 0.00 | 0.13 | 0.00 | 82 | 1015.0 |
| 20260902011536 | 85 | 147 | 0.0 | 0.9 | 0.00 | 0.13 | 0.00 | 80 | 1014.9 |
| 20260902010037 | 86 | 244 | 0.0 | 0.9 | 0.00 | 0.13 | 0.00 | 79 | 1014.7 |
| 20260902004534 | 86 | 239 | 0.0 | 1.7 | 0.00 | 0.13 | 0.00 | 78 | 1014.6 |
| 20260902003032 | 87 | 230 | 0.0 | 1.7 | 0.00 | 0.13 | 0.00 | 76 | 1014.6 |
| 20260902001530 | 88 | 236 | 0.0 | 3.5 | 0.00 | 0.13 | 0.00 | 74 | 1014.5 |
| 20260902000027 | 89 | 257 | 1.7 | 3.5 | 0.00 | 0.13 | 0.00 | 73 | 1014.6 |
| 20260901234522 | 90 | 197 | 0.0 | 4.3 | 0.00 | 0.13 | 0.00 | 71 | 1014.6 |
| 20260901233043 | 91 | 231 | 0.9 | 4.3 | 0.00 | 0.13 | 0.00 | 69 | 1014.6 |